Time,TemperatureF,DewpointF,PressureIn,WindDirection,WindDirectionDegrees,WindSpeedMPH,WindSpeedGustMPH,Humidity,HourlyPrecipIn,Conditions,Clouds,dailyrainin,SolarRadiationWatts/m^2,SoftwareType,DateUTC
2013-01-11 00:00:00,35.2,23.5,30.50,North,0,0.0,2.0,62,0.00,,,0.00,0,HR-IXPWINDi_r2_v1.2.,2013-01-11 05:00:00,
2013-01-11 00:05:00,34.9,24.0,30.50,North,0,0.0,2.0,64,0.00,,,0.00,0,HR-IXPWINDi_r2_v1.2.,2013-01-11 05:05:00,
2013-01-11 00:10:00,34.3,24.1,30.50,North,0,0.0,1.0,66,0.00,,,0.00,0,HR-IXPWINDi_r2_v1.2.,2013-01-11 05:10:00,
2013-01-11 00:16:00,33.7,23.5,30.50,North,0,0.0,2.0,66,0.00,,,0.00,0,HR-IXPWINDi_r2_v1.2.,2013-01-11 05:16:00,
2013-01-11 00:21:00,33.7,23.2,30.50,North,0,2.0,2.0,65,0.00,,,0.00,0,HR-IXPWINDi_r2_v1.2.,2013-01-11 05:21:00,
2013-01-11 00:26:00,33.8,22.9,30.50,North,0,0.0,2.0,64,0.00,,,0.00,0,HR-IXPWINDi_r2_v1.2.,2013-01-11 05:26:00,
2013-01-11 00:31:00,34.0,23.1,30.50,North,0,0.0,2.0,64,0.00,,,0.00,0,HR-IXPWINDi_r2_v1.2.,2013-01-11 05:31:00,
2013-01-11 00:36:00,33.5,23.4,30.49,North,0,0.0,0.0,66,0.00,,,0.00,0,HR-IXPWINDi_r2_v1.2.,2013-01-11 05:36:00,
2013-01-11 00:41:00,33.5,23.0,30.49,North,0,1.0,1.0,65,0.00,,,0.00,0,HR-IXPWINDi_r2_v1.2.,2013-01-11 05:41:00,
2013-01-11 00:48:00,33.4,23.3,30.49,North,0,0.0,1.0,66,0.00,,,0.00,0,HR-IXPWINDi_r2_v1.2.,2013-01-11 05:48:00,
2013-01-11 00:53:00,33.5,23.7,30.49,North,0,0.0,1.0,67,0.00,,,0.00,0,HR-IXPWINDi_r2_v1.2.,2013-01-11 05:53:00,
2013-01-11 00:58:00,33.2,23.8,30.49,North,0,0.0,1.0,68,0.00,,,0.00,0,HR-IXPWINDi_r2_v1.2.,2013-01-11 05:58:00,
2013-01-11 01:03:00,33.1,24.0,30.49,North,0,1.0,2.0,69,0.00,,,0.00,0,HR-IXPWINDi_r2_v1.2.,2013-01-11 06:03:00,
2013-01-11 01:08:00,32.8,24.1,30.50,North,0,0.0,2.0,70,0.00,,,0.00,0,HR-IXPWINDi_r2_v1.2.,2013-01-11 06:08:00,
2013-01-11 01:13:00,32.8,23.7,30.50,North,359,0.0,2.0,69,0.00,,,0.00,0,HR-IXPWINDi_r2_v1.2.,2013-01-11 06:13:00,
2013-01-11 01:19:00,32.9,23.1,30.50,North,359,0.0,1.0,67,0.00,,,0.00,0,HR-IXPWINDi_r2_v1.2.,2013-01-11 06:19:00,
2013-01-11 01:24:00,33.2,23.8,30.49,North,359,0.0,0.0,68,0.00,,,0.00,0,HR-IXPWINDi_r2_v1.2.,2013-01-11 06:24:00,
2013-01-11 01:29:00,32.8,24.1,30.49,North,359,0.0,0.0,70,0.00,,,0.00,0,HR-IXPWINDi_r2_v1.2.,2013-01-11 06:29:00,
2013-01-11 01:34:00,32.7,23.7,30.49,North,0,2.0,2.0,69,0.00,,,0.00,0,HR-IXPWINDi_r2_v1.2.,2013-01-11 06:34:00,
2013-01-11 01:39:00,32.9,23.5,30.48,North,359,0.0,2.0,68,0.00,,,0.00,0,HR-IXPWINDi_r2_v1.2.,2013-01-11 06:39:00,
2013-01-11 01:44:00,32.9,24.2,30.48,North,357,0.0,2.0,70,0.00,,,0.00,0,HR-IXPWINDi_r2_v1.2.,2013-01-11 06:44:00,
2013-01-11 01:49:00,32.7,24.3,30.48,North,0,2.0,2.0,71,0.00,,,0.00,0,HR-IXPWINDi_r2_v1.2.,2013-01-11 06:49:00,
2013-01-11 01:55:00,32.5,23.5,30.48,North,359,0.0,2.0,69,0.00,,,0.00,0,HR-IXPWINDi_r2_v1.2.,2013-01-11 06:55:00,
2013-01-11 02:00:00,32.4,24.0,30.48,North,0,0.0,2.0,71,0.00,,,0.00,0,HR-IXPWINDi_r2_v1.2.,2013-01-11 07:00:00,
2013-01-11 02:05:00,32.1,24.1,30.48,North,350,0.0,2.0,72,0.00,,,0.00,0,HR-IXPWINDi_r2_v1.2.,2013-01-11 07:05:00,
2013-01-11 02:10:00,32.1,23.8,30.48,North,359,0.0,2.0,71,0.00,,,0.00,0,HR-IXPWINDi_r2_v1.2.,2013-01-11 07:10:00,
2013-01-11 02:15:00,32.4,24.0,30.48,North,0,0.0,2.0,71,0.00,,,0.00,0,HR-IXPWINDi_r2_v1.2.,2013-01-11 07:15:00,
2013-01-11 02:21:00,32.2,24.2,30.48,NNW,346,0.0,2.0,72,0.00,,,0.00,0,HR-IXPWINDi_r2_v1.2.,2013-01-11 07:21:00,
2013-01-11 02:26:00,32.2,23.9,30.48,SE,130,1.0,2.0,71,0.00,,,0.00,0,HR-IXPWINDi_r2_v1.2.,2013-01-11 07:26:00,
2013-01-11 02:31:00,32.4,23.4,30.48,North,359,1.0,2.0,69,0.00,,,0.00,0,HR-IXPWINDi_r2_v1.2.,2013-01-11 07:31:00,
2013-01-11 02:36:00,32.8,23.4,30.48,North,359,0.0,2.0,68,0.00,,,0.00,0,HR-IXPWINDi_r2_v1.2.,2013-01-11 07:36:00,
2013-01-11 02:41:00,33.1,24.0,30.48,North,359,0.0,2.0,69,0.00,,,0.00,0,HR-IXPWINDi_r2_v1.2.,2013-01-11 07:41:00,
2013-01-11 02:46:00,32.7,24.3,30.48,North,0,0.0,3.0,71,0.00,,,0.00,0,HR-IXPWINDi_r2_v1.2.,2013-01-11 07:46:00,
2013-01-11 02:51:00,32.5,23.8,30.47,North,0,0.0,3.0,70,0.00,,,0.00,0,HR-IXPWINDi_r2_v1.2.,2013-01-11 07:51:00,
2013-01-11 02:57:00,32.2,24.2,30.47,North,0,0.0,2.0,72,0.00,,,0.00,0,HR-IXPWINDi_r2_v1.2.,2013-01-11 07:57:00,
2013-01-11 03:02:00,32.1,23.8,30.47,North,0,0.0,0.0,71,0.00,,,0.00,0,HR-IXPWINDi_r2_v1.2.,2013-01-11 08:02:00,
2013-01-11 03:07:00,31.6,23.6,30.47,North,0,0.0,0.0,72,0.00,,,0.00,0,HR-IXPWINDi_r2_v1.2.,2013-01-11 08:07:00,
2013-01-11 03:12:00,31.3,24.0,30.47,North,0,0.0,1.0,74,0.00,,,0.00,0,HR-IXPWINDi_r2_v1.2.,2013-01-11 08:12:00,
2013-01-11 03:17:00,31.2,23.6,30.47,North,0,0.0,1.0,73,0.00,,,0.00,0,HR-IXPWINDi_r2_v1.2.,2013-01-11 08:17:00,
2013-01-11 03:22:00,30.7,23.7,30.47,North,0,0.0,1.0,75,0.00,,,0.00,0,HR-IXPWINDi_r2_v1.2.,2013-01-11 08:22:00,
2013-01-11 03:27:00,30.6,23.9,30.47,North,0,0.0,1.0,76,0.00,,,0.00,0,HR-IXPWINDi_r2_v1.2.,2013-01-11 08:27:00,
2013-01-11 03:33:00,30.4,23.7,30.47,North,0,0.0,1.0,76,0.00,,,0.00,0,HR-IXPWINDi_r2_v1.2.,2013-01-11 08:33:00,
2013-01-11 03:38:00,30.3,23.6,30.47,North,0,1.0,2.0,76,0.00,,,0.00,0,HR-IXPWINDi_r2_v1.2.,2013-01-11 08:38:00,
2013-01-11 03:43:00,30.1,23.8,30.47,North,0,0.0,2.0,77,0.00,,,0.00,0,HR-IXPWINDi_r2_v1.2.,2013-01-11 08:43:00,
2013-01-11 03:48:00,30.0,23.7,30.47,North,0,0.0,2.0,77,0.00,,,0.00,0,HR-IXPWINDi_r2_v1.2.,2013-01-11 08:48:00,
2013-01-11 03:53:00,29.8,23.5,30.46,North,0,0.0,0.0,77,0.00,,,0.00,0,HR-IXPWINDi_r2_v1.2.,2013-01-11 08:53:00,
2013-01-11 03:59:00,29.7,23.7,30.46,North,0,0.0,0.0,78,0.00,,,0.00,0,HR-IXPWINDi_r2_v1.2.,2013-01-11 08:59:00,
2013-01-11 04:04:00,29.5,23.5,30.46,North,0,0.0,0.0,78,0.00,,,0.00,0,HR-IXPWINDi_r2_v1.2.,2013-01-11 09:04:00,
2013-01-11 04:09:00,29.5,23.5,30.44,North,0,0.0,0.0,78,0.00,,,0.00,0,HR-IXPWINDi_r2_v1.2.,2013-01-11 09:09:00,
2013-01-11 04:14:00,29.5,23.5,30.44,North,0,0.0,0.0,78,0.00,,,0.00,0,HR-IXPWINDi_r2_v1.2.,2013-01-11 09:14:00,
2013-01-11 04:19:00,29.4,23.7,30.44,North,0,0.0,1.0,79,0.00,,,0.00,0,HR-IXPWINDi_r2_v1.2.,2013-01-11 09:19:00,
2013-01-11 04:25:00,29.5,23.8,30.44,North,0,1.0,2.0,79,0.00,,,0.00,0,HR-IXPWINDi_r2_v1.2.,2013-01-11 09:25:00,
2013-01-11 04:30:00,29.5,23.8,30.44,North,0,0.0,2.0,79,0.00,,,0.00,0,HR-IXPWINDi_r2_v1.2.,2013-01-11 09:30:00,
2013-01-11 04:35:00,29.5,23.8,30.44,North,0,0.0,2.0,79,0.00,,,0.00,0,HR-IXPWINDi_r2_v1.2.,2013-01-11 09:35:00,
2013-01-11 04:40:00,29.7,23.7,30.43,North,0,0.0,0.0,78,0.00,,,0.00,0,HR-IXPWINDi_r2_v1.2.,2013-01-11 09:40:00,
2013-01-11 04:45:00,29.8,23.5,30.43,North,0,0.0,0.0,77,0.00,,,0.00,0,HR-IXPWINDi_r2_v1.2.,2013-01-11 09:45:00,
2013-01-11 04:50:00,29.8,23.5,30.43,North,0,0.0,0.0,77,0.00,,,0.00,0,HR-IXPWINDi_r2_v1.2.,2013-01-11 09:50:00,
2013-01-11 04:55:00,29.8,23.8,30.43,North,0,0.0,0.0,78,0.00,,,0.00,0,HR-IXPWINDi_r2_v1.2.,2013-01-11 09:55:00,
2013-01-11 05:01:00,30.0,23.7,30.43,North,0,0.0,0.0,77,0.00,,,0.00,0,HR-IXPWINDi_r2_v1.2.,2013-01-11 10:01:00,
2013-01-11 05:06:00,30.3,24.0,30.44,North,0,1.0,1.0,77,0.00,,,0.00,0,HR-IXPWINDi_r2_v1.2.,2013-01-11 10:06:00,
2013-01-11 05:11:00,30.4,23.4,30.44,North,0,0.0,1.0,75,0.00,,,0.00,0,HR-IXPWINDi_r2_v1.2.,2013-01-11 10:11:00,
2013-01-11 05:16:00,30.3,23.3,30.44,North,0,0.0,1.0,75,0.00,,,0.00,0,HR-IXPWINDi_r2_v1.2.,2013-01-11 10:16:00,
2013-01-11 05:21:00,30.1,23.4,30.43,North,0,0.0,1.0,76,0.00,,,0.00,0,HR-IXPWINDi_r2_v1.2.,2013-01-11 10:21:00,
2013-01-11 05:27:00,30.0,23.4,30.43,North,0,0.0,0.0,76,0.00,,,0.00,0,HR-IXPWINDi_r2_v1.2.,2013-01-11 10:27:00,
2013-01-11 05:32:00,30.0,23.4,30.43,North,0,0.0,2.0,76,0.00,,,0.00,0,HR-IXPWINDi_r2_v1.2.,2013-01-11 10:32:00,
2013-01-11 05:37:00,29.8,23.5,30.43,North,0,0.0,2.0,77,0.00,,,0.00,0,HR-IXPWINDi_r2_v1.2.,2013-01-11 10:37:00,
2013-01-11 05:42:00,29.7,23.7,30.43,North,0,0.0,0.0,78,0.00,,,0.00,0,HR-IXPWINDi_r2_v1.2.,2013-01-11 10:42:00,
2013-01-11 05:47:00,29.7,23.7,30.43,North,0,0.0,1.0,78,0.00,,,0.00,0,HR-IXPWINDi_r2_v1.2.,2013-01-11 10:47:00,
2013-01-11 05:52:00,30.0,23.7,30.43,North,0,0.0,1.0,77,0.00,,,0.00,0,HR-IXPWINDi_r2_v1.2.,2013-01-11 10:52:00,
2013-01-11 05:58:00,30.3,23.6,30.43,North,0,0.0,1.0,76,0.00,,,0.00,0,HR-IXPWINDi_r2_v1.2.,2013-01-11 10:58:00,
2013-01-11 06:03:00,30.1,24.1,30.43,North,0,0.0,1.0,78,0.00,,,0.00,0,HR-IXPWINDi_r2_v1.2.,2013-01-11 11:03:00,
2013-01-11 06:08:00,30.3,24.3,30.43,North,0,0.0,1.0,78,0.00,,,0.00,0,HR-IXPWINDi_r2_v1.2.,2013-01-11 11:08:00,
2013-01-11 06:13:00,30.1,24.4,30.43,North,0,0.0,0.0,79,0.00,,,0.00,0,HR-IXPWINDi_r2_v1.2.,2013-01-11 11:13:00,
2013-01-11 06:18:00,30.1,24.4,30.43,North,0,0.0,0.0,79,0.00,,,0.00,0,HR-IXPWINDi_r2_v1.2.,2013-01-11 11:18:00,
2013-01-11 06:24:00,30.1,24.4,30.43,North,0,0.0,0.0,79,0.00,,,0.00,0,HR-IXPWINDi_r2_v1.2.,2013-01-11 11:24:00,
2013-01-11 06:29:00,30.1,24.4,30.43,North,0,0.0,0.0,79,0.00,,,0.00,0,HR-IXPWINDi_r2_v1.2.,2013-01-11 11:29:00,
2013-01-11 06:34:00,30.1,24.4,30.43,North,0,0.0,0.0,79,0.00,,,0.00,0,HR-IXPWINDi_r2_v1.2.,2013-01-11 11:34:00,
2013-01-11 06:39:00,30.1,24.7,30.44,North,0,0.0,0.0,80,0.00,,,0.00,0,HR-IXPWINDi_r2_v1.2.,2013-01-11 11:39:00,
2013-01-11 06:44:00,30.1,24.7,30.44,North,0,0.0,0.0,80,0.00,,,0.00,0,HR-IXPWINDi_r2_v1.2.,2013-01-11 11:44:00,
2013-01-11 06:49:00,30.1,24.7,30.44,North,0,0.0,0.0,80,0.00,,,0.00,0,HR-IXPWINDi_r2_v1.2.,2013-01-11 11:49:00,
2013-01-11 06:55:00,30.3,24.9,30.44,North,0,0.0,0.0,80,0.00,,,0.00,0,HR-IXPWINDi_r2_v1.2.,2013-01-11 11:55:00,
2013-01-11 07:00:00,30.3,24.9,30.44,North,0,0.0,0.0,80,0.00,,,0.00,0,HR-IXPWINDi_r2_v1.2.,2013-01-11 12:00:00,
2013-01-11 07:05:00,30.3,24.9,30.44,North,0,0.0,0.0,80,0.00,,,0.00,0,HR-IXPWINDi_r2_v1.2.,2013-01-11 12:05:00,
2013-01-11 07:10:00,30.4,25.0,30.44,North,0,0.0,0.0,80,0.00,,,0.00,0,HR-IXPWINDi_r2_v1.2.,2013-01-11 12:10:00,
2013-01-11 07:15:00,30.6,24.9,30.44,North,0,0.0,0.0,79,0.00,,,0.00,0,HR-IXPWINDi_r2_v1.2.,2013-01-11 12:15:00,
2013-01-11 07:20:00,30.7,25.0,30.44,North,0,0.0,0.0,79,0.00,,,0.00,0,HR-IXPWINDi_r2_v1.2.,2013-01-11 12:20:00,
2013-01-11 07:25:00,30.9,25.1,30.45,North,0,0.0,0.0,79,0.00,,,0.00,0,HR-IXPWINDi_r2_v1.2.,2013-01-11 12:25:00,
2013-01-11 07:31:00,31.0,25.2,30.45,North,0,0.0,0.0,79,0.00,,,0.00,0,HR-IXPWINDi_r2_v1.2.,2013-01-11 12:31:00,
2013-01-11 07:36:00,31.2,25.4,30.45,North,0,0.0,0.0,79,0.00,,,0.00,0,HR-IXPWINDi_r2_v1.2.,2013-01-11 12:36:00,
2013-01-11 07:41:00,31.3,25.5,30.45,North,0,0.0,0.0,79,0.00,,,0.00,0,HR-IXPWINDi_r2_v1.2.,2013-01-11 12:41:00,
2013-01-11 07:46:00,31.3,25.2,30.45,North,0,0.0,1.0,78,0.00,,,0.00,0,HR-IXPWINDi_r2_v1.2.,2013-01-11 12:46:00,
2013-01-11 07:51:00,31.3,25.2,30.45,North,0,0.0,1.0,78,0.00,,,0.00,0,HR-IXPWINDi_r2_v1.2.,2013-01-11 12:51:00,
2013-01-11 07:56:00,31.5,25.1,30.45,North,0,0.0,0.0,77,0.00,,,0.00,7,HR-IXPWINDi_r2_v1.2.,2013-01-11 12:56:00,
2013-01-11 08:01:00,31.5,25.1,30.45,North,0,0.0,0.0,77,0.00,,,0.00,11,HR-IXPWINDi_r2_v1.2.,2013-01-11 13:01:00,
2013-01-11 08:06:00,31.6,25.5,30.45,North,0,0.0,0.0,78,0.00,,,0.00,12,HR-IXPWINDi_r2_v1.2.,2013-01-11 13:06:00,
2013-01-11 08:12:00,31.8,25.4,30.45,North,0,0.0,0.0,77,0.00,,,0.00,19,HR-IXPWINDi_r2_v1.2.,2013-01-11 13:12:00,
2013-01-11 08:17:00,31.9,25.5,30.45,North,0,0.0,0.0,77,0.00,,,0.00,18,HR-IXPWINDi_r2_v1.2.,2013-01-11 13:17:00,
2013-01-11 08:22:00,32.1,25.7,30.44,North,0,0.0,0.0,77,0.00,,,0.00,19,HR-IXPWINDi_r2_v1.2.,2013-01-11 13:22:00,
2013-01-11 08:27:00,32.2,25.2,30.44,North,0,0.0,0.0,75,0.00,,,0.00,21,HR-IXPWINDi_r2_v1.2.,2013-01-11 13:27:00,
2013-01-11 08:33:00,32.5,25.1,30.44,North,0,0.0,0.0,74,0.00,,,0.00,33,HR-IXPWINDi_r2_v1.2.,2013-01-11 13:33:00,
2013-01-11 08:38:00,32.9,24.9,30.43,North,0,0.0,0.0,72,0.00,,,0.00,39,HR-IXPWINDi_r2_v1.2.,2013-01-11 13:38:00,
2013-01-11 08:43:00,33.2,24.8,30.43,North,0,0.0,0.0,71,0.00,,,0.00,44,HR-IXPWINDi_r2_v1.2.,2013-01-11 13:43:00,
2013-01-11 08:48:00,33.7,25.0,30.43,North,0,0.0,1.0,70,0.00,,,0.00,49,HR-IXPWINDi_r2_v1.2.,2013-01-11 13:48:00,
2013-01-11 08:53:00,34.1,25.0,30.42,North,0,0.0,1.0,69,0.00,,,0.00,49,HR-IXPWINDi_r2_v1.2.,2013-01-11 13:53:00,
2013-01-11 08:58:00,34.6,25.1,30.42,North,0,0.0,0.0,68,0.00,,,0.00,42,HR-IXPWINDi_r2_v1.2.,2013-01-11 13:58:00,
2013-01-11 09:04:00,35.0,25.1,30.42,North,0,0.0,2.0,67,0.00,,,0.00,42,HR-IXPWINDi_r2_v1.2.,2013-01-11 14:04:00,
2013-01-11 09:09:00,35.5,24.9,30.42,North,0,0.0,2.0,65,0.00,,,0.00,49,HR-IXPWINDi_r2_v1.2.,2013-01-11 14:09:00,
2013-01-11 09:14:00,35.8,24.8,30.42,North,0,1.0,2.0,64,0.00,,,0.00,48,HR-IXPWINDi_r2_v1.2.,2013-01-11 14:14:00,
2013-01-11 09:19:00,36.2,25.2,30.42,North,10,2.0,3.0,64,0.00,,,0.00,46,HR-IXPWINDi_r2_v1.2.,2013-01-11 14:19:00,
2013-01-11 09:25:00,36.3,24.5,30.42,NNW,346,0.0,3.0,62,0.00,,,0.00,51,HR-IXPWINDi_r2_v1.2.,2013-01-11 14:25:00,
2013-01-11 09:30:00,36.8,25.0,30.42,SSW,195,1.0,3.0,62,0.00,,,0.00,48,HR-IXPWINDi_r2_v1.2.,2013-01-11 14:30:00,
2013-01-11 09:35:00,36.3,24.1,30.42,South,175,1.0,3.0,61,0.00,,,0.00,49,HR-IXPWINDi_r2_v1.2.,2013-01-11 14:35:00,
2013-01-11 09:40:00,36.5,25.8,30.43,South,178,0.0,3.0,65,0.00,,,0.00,55,HR-IXPWINDi_r2_v1.2.,2013-01-11 14:40:00,
2013-01-11 09:46:00,36.9,25.8,30.43,South,178,0.0,3.0,64,0.00,,,0.00,63,HR-IXPWINDi_r2_v1.2.,2013-01-11 14:46:00,
2013-01-11 09:51:00,36.8,25.4,30.43,South,172,2.0,3.0,63,0.00,,,0.00,67,HR-IXPWINDi_r2_v1.2.,2013-01-11 14:51:00,
2013-01-11 09:56:00,36.5,25.8,30.43,South,171,0.0,3.0,65,0.00,,,0.00,69,HR-IXPWINDi_r2_v1.2.,2013-01-11 14:56:00,
2013-01-11 10:01:00,36.5,25.8,30.43,South,171,2.0,3.0,65,0.00,,,0.00,65,HR-IXPWINDi_r2_v1.2.,2013-01-11 15:01:00,
2013-01-11 10:07:00,36.5,25.8,30.42,South,172,0.0,2.0,65,0.00,,,0.00,55,HR-IXPWINDi_r2_v1.2.,2013-01-11 15:07:00,
2013-01-11 10:12:00,36.3,25.7,30.42,South,171,0.0,2.0,65,0.00,,,0.00,53,HR-IXPWINDi_r2_v1.2.,2013-01-11 15:12:00,
2013-01-11 10:17:00,36.5,25.8,30.42,South,172,0.0,2.0,65,0.00,,,0.00,53,HR-IXPWINDi_r2_v1.2.,2013-01-11 15:17:00,
2013-01-11 10:22:00,36.5,26.2,30.42,South,172,0.0,3.0,66,0.00,,,0.00,53,HR-IXPWINDi_r2_v1.2.,2013-01-11 15:22:00,
2013-01-11 10:28:00,36.5,25.8,30.42,South,171,0.0,3.0,65,0.00,,,0.00,81,HR-IXPWINDi_r2_v1.2.,2013-01-11 15:28:00,
2013-01-11 10:33:00,36.6,25.9,30.42,South,172,0.0,2.0,65,0.00,,,0.00,77,HR-IXPWINDi_r2_v1.2.,2013-01-11 15:33:00,
2013-01-11 10:38:00,36.6,25.9,30.40,South,172,0.0,2.0,65,0.00,,,0.00,88,HR-IXPWINDi_r2_v1.2.,2013-01-11 15:38:00,
2013-01-11 10:43:00,37.0,25.9,30.40,South,172,0.0,1.0,64,0.00,,,0.00,84,HR-IXPWINDi_r2_v1.2.,2013-01-11 15:43:00,
2013-01-11 10:48:00,37.3,26.2,30.40,South,172,0.0,2.0,64,0.00,,,0.00,81,HR-IXPWINDi_r2_v1.2.,2013-01-11 15:48:00,
2013-01-11 10:53:00,37.3,26.2,30.40,South,172,1.0,2.0,64,0.00,,,0.00,97,HR-IXPWINDi_r2_v1.2.,2013-01-11 15:53:00,
2013-01-11 10:58:00,37.2,26.5,30.40,South,171,0.0,3.0,65,0.00,,,0.00,120,HR-IXPWINDi_r2_v1.2.,2013-01-11 15:58:00,
2013-01-11 11:03:00,37.3,26.6,30.40,SSE,161,2.0,5.0,65,0.00,,,0.00,100,HR-IXPWINDi_r2_v1.2.,2013-01-11 16:03:00,
2013-01-11 11:08:00,37.3,26.6,30.38,SSE,160,0.0,5.0,65,0.00,,,0.00,97,HR-IXPWINDi_r2_v1.2.,2013-01-11 16:08:00,
2013-01-11 11:14:00,37.8,27.1,30.38,SSE,160,2.0,4.0,65,0.00,,,0.00,106,HR-IXPWINDi_r2_v1.2.,2013-01-11 16:14:00,
2013-01-11 11:19:00,37.6,26.1,30.38,SSE,160,1.0,3.0,63,0.00,,,0.00,102,HR-IXPWINDi_r2_v1.2.,2013-01-11 16:19:00,
2013-01-11 11:24:00,37.6,26.9,30.37,SSE,160,0.0,3.0,65,0.00,,,0.00,83,HR-IXPWINDi_r2_v1.2.,2013-01-11 16:24:00,
2013-01-11 11:29:00,37.5,26.4,30.37,SSE,160,1.0,3.0,64,0.00,,,0.00,62,HR-IXPWINDi_r2_v1.2.,2013-01-11 16:29:00,
2013-01-11 11:34:00,37.5,27.2,30.37,SSE,160,0.0,2.0,66,0.00,,,0.00,58,HR-IXPWINDi_r2_v1.2.,2013-01-11 16:34:00,
2013-01-11 11:40:00,37.9,27.5,30.36,SSE,160,0.0,2.0,66,0.00,,,0.00,90,HR-IXPWINDi_r2_v1.2.,2013-01-11 16:40:00,
2013-01-11 11:45:00,37.9,27.2,30.36,SSE,160,0.0,3.0,65,0.00,,,0.00,106,HR-IXPWINDi_r2_v1.2.,2013-01-11 16:45:00,
2013-01-11 11:50:00,37.9,27.9,30.36,SSE,160,0.0,3.0,67,0.00,,,0.00,83,HR-IXPWINDi_r2_v1.2.,2013-01-11 16:50:00,
2013-01-11 11:55:00,38.0,28.4,30.34,SSE,160,2.0,3.0,68,0.00,,,0.00,99,HR-IXPWINDi_r2_v1.2.,2013-01-11 16:55:00,
2013-01-11 12:00:00,38.5,28.8,30.34,SSE,160,0.0,3.0,68,0.00,,,0.00,123,HR-IXPWINDi_r2_v1.2.,2013-01-11 17:00:00,
2013-01-11 12:05:00,38.8,29.1,30.34,SSE,160,2.0,3.0,68,0.00,,,0.00,125,HR-IXPWINDi_r2_v1.2.,2013-01-11 17:05:00,
2013-01-11 12:11:00,38.8,29.1,30.32,SE,141,4.0,5.0,68,0.00,,,0.00,116,HR-IXPWINDi_r2_v1.2.,2013-01-11 17:11:00,
2013-01-11 12:16:00,38.9,29.6,30.32,SE,141,0.0,5.0,69,0.00,,,0.00,95,HR-IXPWINDi_r2_v1.2.,2013-01-11 17:16:00,
2013-01-11 12:21:00,39.5,30.1,30.31,SE,141,0.0,4.0,69,0.00,,,0.00,97,HR-IXPWINDi_r2_v1.2.,2013-01-11 17:21:00,
2013-01-11 12:27:00,39.9,30.5,30.31,SE,143,0.0,2.0,69,0.00,,,0.00,39,HR-IXPWINDi_r2_v1.2.,2013-01-11 17:27:00,
2013-01-11 12:32:00,40.1,30.4,30.31,SE,140,2.0,3.0,68,0.00,,,0.00,48,HR-IXPWINDi_r2_v1.2.,2013-01-11 17:32:00,
2013-01-11 12:37:00,39.8,30.4,30.30,SSE,162,2.0,3.0,69,0.00,,,0.00,76,HR-IXPWINDi_r2_v1.2.,2013-01-11 17:37:00,
2013-01-11 12:42:00,39.6,30.6,30.30,SSE,162,0.0,3.0,70,0.00,,,0.00,99,HR-IXPWINDi_r2_v1.2.,2013-01-11 17:42:00,
2013-01-11 12:47:00,39.6,30.2,30.30,SSE,162,2.0,3.0,69,0.00,,,0.00,90,HR-IXPWINDi_r2_v1.2.,2013-01-11 17:47:00,
2013-01-11 12:52:00,39.5,30.5,30.31,SSE,162,2.0,3.0,70,0.00,,,0.00,83,HR-IXPWINDi_r2_v1.2.,2013-01-11 17:52:00,
2013-01-11 12:57:00,39.6,30.9,30.31,SSE,162,1.0,3.0,71,0.00,,,0.00,60,HR-IXPWINDi_r2_v1.2.,2013-01-11 17:57:00,
2013-01-11 13:03:00,39.8,30.8,30.31,SSE,164,1.0,3.0,70,0.00,,,0.00,44,HR-IXPWINDi_r2_v1.2.,2013-01-11 18:03:00,
2013-01-11 13:08:00,39.9,31.6,30.31,SSE,164,0.0,3.0,72,0.00,,,0.00,37,HR-IXPWINDi_r2_v1.2.,2013-01-11 18:08:00,
2013-01-11 13:13:00,40.1,31.1,30.31,SSE,164,0.0,3.0,70,0.00,,,0.00,30,HR-IXPWINDi_r2_v1.2.,2013-01-11 18:13:00,
2013-01-11 13:18:00,40.2,31.5,30.31,SSE,164,2.0,3.0,71,0.00,,,0.00,21,HR-IXPWINDi_r2_v1.2.,2013-01-11 18:18:00,
2013-01-11 13:23:00,40.3,32.6,30.30,SSE,164,1.0,2.0,74,0.00,,,0.00,16,HR-IXPWINDi_r2_v1.2.,2013-01-11 18:23:00,
2013-01-11 13:29:00,39.8,31.8,30.30,SSE,164,0.0,2.0,73,0.00,,,0.00,12,HR-IXPWINDi_r2_v1.2.,2013-01-11 18:29:00,
2013-01-11 13:34:00,39.5,31.9,30.30,SSE,164,0.0,2.0,74,0.00,,,0.00,18,HR-IXPWINDi_r2_v1.2.,2013-01-11 18:34:00,
2013-01-11 13:39:00,39.3,32.3,30.30,SSE,164,0.0,2.0,76,0.00,,,0.00,19,HR-IXPWINDi_r2_v1.2.,2013-01-11 18:39:00,
2013-01-11 13:44:00,39.3,32.3,30.30,SSE,164,0.0,2.0,76,0.00,,,0.00,23,HR-IXPWINDi_r2_v1.2.,2013-01-11 18:44:00,
2013-01-11 13:49:00,39.2,32.2,30.30,SSE,164,0.0,2.0,76,0.00,,,0.00,18,HR-IXPWINDi_r2_v1.2.,2013-01-11 18:49:00,
2013-01-11 13:54:00,38.9,32.3,30.30,SSE,164,0.0,2.0,77,0.00,,,0.00,26,HR-IXPWINDi_r2_v1.2.,2013-01-11 18:54:00,
2013-01-11 14:00:00,38.9,32.9,30.30,SSE,162,0.0,2.0,79,0.00,,,0.00,25,HR-IXPWINDi_r2_v1.2.,2013-01-11 19:00:00,
2013-01-11 14:05:00,38.9,33.2,30.30,SSE,164,0.0,2.0,80,0.00,,,0.00,16,HR-IXPWINDi_r2_v1.2.,2013-01-11 19:05:00,
2013-01-11 14:10:00,38.6,32.9,30.29,SSE,164,1.0,2.0,80,0.00,,,0.00,14,HR-IXPWINDi_r2_v1.2.,2013-01-11 19:10:00,
2013-01-11 14:15:00,38.3,32.6,30.29,SSE,164,1.0,2.0,80,0.00,,,0.00,23,HR-IXPWINDi_r2_v1.2.,2013-01-11 19:15:00,
2013-01-11 14:21:00,38.3,33.3,30.29,SSE,164,0.0,2.0,82,0.00,,,0.00,25,HR-IXPWINDi_r2_v1.2.,2013-01-11 19:21:00,
2013-01-11 14:26:00,38.0,33.0,30.28,SSE,164,0.0,2.0,82,0.00,,,0.00,21,HR-IXPWINDi_r2_v1.2.,2013-01-11 19:26:00,
2013-01-11 14:31:00,38.0,33.0,30.28,SSE,162,1.0,2.0,82,0.00,,,0.00,23,HR-IXPWINDi_r2_v1.2.,2013-01-11 19:31:00,
2013-01-11 14:36:00,37.8,32.8,30.27,SSE,164,0.0,2.0,82,0.00,,,0.00,21,HR-IXPWINDi_r2_v1.2.,2013-01-11 19:36:00,
2013-01-11 14:41:00,37.6,32.6,30.27,SSE,164,1.0,2.0,82,0.00,,,0.00,21,HR-IXPWINDi_r2_v1.2.,2013-01-11 19:41:00,
2013-01-11 14:47:00,37.6,32.9,30.27,SSE,157,2.0,3.0,83,0.00,,,0.00,37,HR-IXPWINDi_r2_v1.2.,2013-01-11 19:47:00,
2013-01-11 14:52:00,37.8,33.1,30.26,SSE,157,2.0,3.0,83,0.00,,,0.00,33,HR-IXPWINDi_r2_v1.2.,2013-01-11 19:52:00,
2013-01-11 14:57:00,37.8,33.4,30.26,SSE,157,0.0,2.0,84,0.00,,,0.00,21,HR-IXPWINDi_r2_v1.2.,2013-01-11 19:57:00,
2013-01-11 15:02:00,38.0,33.6,30.26,SSE,157,0.0,2.0,84,0.00,,,0.00,23,HR-IXPWINDi_r2_v1.2.,2013-01-11 20:02:00,
2013-01-11 15:08:00,38.0,33.3,30.26,SSE,157,0.0,3.0,83,0.00,,,0.00,18,HR-IXPWINDi_r2_v1.2.,2013-01-11 20:08:00,
2013-01-11 15:13:00,38.3,33.9,30.26,SSE,157,0.0,3.0,84,0.00,,,0.00,12,HR-IXPWINDi_r2_v1.2.,2013-01-11 20:13:00,
2013-01-11 15:18:00,38.0,33.3,30.26,SSE,157,0.0,2.0,83,0.00,,,0.00,11,HR-IXPWINDi_r2_v1.2.,2013-01-11 20:18:00,
2013-01-11 15:23:00,38.0,33.3,30.26,SSE,157,0.0,2.0,83,0.00,,,0.00,18,HR-IXPWINDi_r2_v1.2.,2013-01-11 20:23:00,
2013-01-11 15:28:00,38.8,34.6,30.26,SSE,158,0.0,2.0,85,0.00,,,0.00,19,HR-IXPWINDi_r2_v1.2.,2013-01-11 20:28:00,
2013-01-11 15:34:00,38.6,34.1,30.26,SSE,158,1.0,3.0,84,0.00,,,0.00,9,HR-IXPWINDi_r2_v1.2.,2013-01-11 20:34:00,
2013-01-11 15:39:00,38.5,33.8,30.25,SSE,158,1.0,3.0,83,0.00,,,0.00,5,HR-IXPWINDi_r2_v1.2.,2013-01-11 20:39:00,
2013-01-11 15:44:00,38.6,34.4,30.25,SSE,158,1.0,2.0,85,0.00,,,0.00,0,HR-IXPWINDi_r2_v1.2.,2013-01-11 20:44:00,
2013-01-11 15:49:00,38.6,34.1,30.25,SSE,158,0.0,2.0,84,0.00,,,0.00,5,HR-IXPWINDi_r2_v1.2.,2013-01-11 20:49:00,
2013-01-11 15:54:00,38.6,33.9,30.24,SSE,158,0.0,2.0,83,0.00,,,0.00,7,HR-IXPWINDi_r2_v1.2.,2013-01-11 20:54:00,
2013-01-11 16:00:00,38.6,33.9,30.24,SSE,158,0.0,2.0,83,0.00,,,0.00,7,HR-IXPWINDi_r2_v1.2.,2013-01-11 21:00:00,
2013-01-11 16:05:00,38.5,33.8,30.24,SSE,158,0.0,2.0,83,0.00,,,0.00,5,HR-IXPWINDi_r2_v1.2.,2013-01-11 21:05:00,
2013-01-11 16:10:00,38.3,33.6,30.23,SSE,158,0.0,2.0,83,0.00,,,0.00,7,HR-IXPWINDi_r2_v1.2.,2013-01-11 21:10:00,
2013-01-11 16:15:00,38.5,34.1,30.23,SSE,158,0.0,2.0,84,0.00,,,0.00,7,HR-IXPWINDi_r2_v1.2.,2013-01-11 21:15:00,
2013-01-11 16:21:00,38.5,34.1,30.24,SSE,158,0.0,1.0,84,0.00,,,0.00,0,HR-IXPWINDi_r2_v1.2.,2013-01-11 21:21:00,
2013-01-11 16:26:00,38.5,34.1,30.24,SSE,158,0.0,2.0,84,0.00,,,0.00,0,HR-IXPWINDi_r2_v1.2.,2013-01-11 21:26:00,
2013-01-11 16:31:00,38.6,34.4,30.24,SSE,158,1.0,2.0,85,0.00,,,0.00,0,HR-IXPWINDi_r2_v1.2.,2013-01-11 21:31:00,
2013-01-11 16:36:00,38.6,34.4,30.22,SSE,158,0.0,2.0,85,0.00,,,0.00,0,HR-IXPWINDi_r2_v1.2.,2013-01-11 21:36:00,
2013-01-11 16:41:00,38.8,34.6,30.22,SSE,158,0.0,2.0,85,0.00,,,0.00,0,HR-IXPWINDi_r2_v1.2.,2013-01-11 21:41:00,
2013-01-11 16:47:00,38.8,34.6,30.22,SSE,158,0.0,2.0,85,0.00,,,0.00,0,HR-IXPWINDi_r2_v1.2.,2013-01-11 21:47:00,
2013-01-11 16:52:00,38.8,34.9,30.21,SSE,158,1.0,3.0,86,0.00,,,0.00,0,HR-IXPWINDi_r2_v1.2.,2013-01-11 21:52:00,
2013-01-11 16:57:00,38.8,34.9,30.21,SSE,158,0.0,3.0,86,0.00,,,0.00,0,HR-IXPWINDi_r2_v1.2.,2013-01-11 21:57:00,
2013-01-11 17:02:00,38.9,35.0,30.21,SSE,158,0.0,3.0,86,0.00,,,0.00,0,HR-IXPWINDi_r2_v1.2.,2013-01-11 22:02:00,
2013-01-11 17:07:00,38.9,35.3,30.21,SSE,167,0.0,3.0,87,0.00,,,0.00,0,HR-IXPWINDi_r2_v1.2.,2013-01-11 22:07:00,
2013-01-11 17:12:00,38.9,35.3,30.21,SSE,167,1.0,3.0,87,0.00,,,0.00,0,HR-IXPWINDi_r2_v1.2.,2013-01-11 22:12:00,
2013-01-11 17:18:00,38.9,35.3,30.21,SSE,167,0.0,3.0,87,0.00,,,0.00,0,HR-IXPWINDi_r2_v1.2.,2013-01-11 22:18:00,
2013-01-11 17:23:00,38.8,35.2,30.21,SSE,167,2.0,3.0,87,0.00,,,0.00,0,HR-IXPWINDi_r2_v1.2.,2013-01-11 22:23:00,
2013-01-11 17:28:00,38.6,35.3,30.21,SSE,168,0.0,3.0,88,0.00,,,0.00,0,HR-IXPWINDi_r2_v1.2.,2013-01-11 22:28:00,
2013-01-11 17:34:00,38.6,35.3,30.21,SSE,168,1.0,3.0,88,0.00,,,0.00,0,HR-IXPWINDi_r2_v1.2.,2013-01-11 22:34:00,
2013-01-11 17:39:00,38.6,35.6,30.20,SSE,168,0.0,3.0,89,0.00,,,0.00,0,HR-IXPWINDi_r2_v1.2.,2013-01-11 22:39:00,
2013-01-11 17:44:00,38.8,35.8,30.20,SSE,168,0.0,3.0,89,0.00,,,0.00,0,HR-IXPWINDi_r2_v1.2.,2013-01-11 22:44:00,
2013-01-11 17:49:00,38.9,35.9,30.20,SSE,167,0.0,2.0,89,0.00,,,0.00,0,HR-IXPWINDi_r2_v1.2.,2013-01-11 22:49:00,
2013-01-11 17:54:00,38.9,35.9,30.19,SSE,168,0.0,2.0,89,0.00,,,0.00,0,HR-IXPWINDi_r2_v1.2.,2013-01-11 22:54:00,
2013-01-11 17:59:00,39.1,36.1,30.19,South,171,0.0,3.0,89,0.00,,,0.00,0,HR-IXPWINDi_r2_v1.2.,2013-01-11 22:59:00,
2013-01-11 18:04:00,39.1,36.1,30.19,South,169,0.0,3.0,89,0.00,,,0.00,0,HR-IXPWINDi_r2_v1.2.,2013-01-11 23:04:00,
2013-01-11 18:10:00,39.2,36.2,30.19,South,169,0.0,2.0,89,0.00,,,0.00,0,HR-IXPWINDi_r2_v1.2.,2013-01-11 23:10:00,
2013-01-11 18:15:00,39.3,36.6,30.19,South,169,0.0,3.0,90,0.00,,,0.00,0,HR-IXPWINDi_r2_v1.2.,2013-01-11 23:15:00,
2013-01-11 18:20:00,39.5,36.8,30.19,South,171,1.0,3.0,90,0.00,,,0.00,0,HR-IXPWINDi_r2_v1.2.,2013-01-11 23:20:00,
2013-01-11 18:25:00,39.6,36.9,30.19,South,169,0.0,3.0,90,0.00,,,0.00,0,HR-IXPWINDi_r2_v1.2.,2013-01-11 23:25:00,
2013-01-11 18:30:00,39.6,36.9,30.19,South,171,0.0,2.0,90,0.00,,,0.00,0,HR-IXPWINDi_r2_v1.2.,2013-01-11 23:30:00,
2013-01-11 18:36:00,39.8,37.1,30.19,South,169,0.0,3.0,90,0.00,,,0.00,0,HR-IXPWINDi_r2_v1.2.,2013-01-11 23:36:00,
2013-01-11 18:41:00,39.8,37.3,30.17,South,169,0.0,3.0,91,0.00,,,0.00,0,HR-IXPWINDi_r2_v1.2.,2013-01-11 23:41:00,
2013-01-11 18:46:00,39.8,37.3,30.17,South,169,0.0,2.0,91,0.00,,,0.00,0,HR-IXPWINDi_r2_v1.2.,2013-01-11 23:46:00,
2013-01-11 18:51:00,40.3,37.8,30.16,South,171,0.0,2.0,91,0.00,,,0.00,0,HR-IXPWINDi_r2_v1.2.,2013-01-11 23:51:00,
2013-01-11 18:56:00,40.2,37.7,30.16,South,169,0.0,2.0,91,0.00,,,0.00,0,HR-IXPWINDi_r2_v1.2.,2013-01-11 23:56:00,
2013-01-11 19:01:00,40.3,37.8,30.16,South,171,0.0,2.0,91,0.00,,,0.00,0,HR-IXPWINDi_r2_v1.2.,2013-01-12 00:01:00,
2013-01-11 19:07:00,40.5,38.0,30.15,South,171,0.0,2.0,91,0.00,,,0.00,0,HR-IXPWINDi_r2_v1.2.,2013-01-12 00:07:00,
2013-01-11 19:12:00,40.8,38.3,30.15,South,171,0.0,3.0,91,0.00,,,0.00,0,HR-IXPWINDi_r2_v1.2.,2013-01-12 00:12:00,
2013-01-11 19:17:00,40.8,38.6,30.15,South,169,0.0,3.0,92,0.00,,,0.00,0,HR-IXPWINDi_r2_v1.2.,2013-01-12 00:17:00,
2013-01-11 19:22:00,40.9,38.7,30.15,South,169,0.0,2.0,92,0.00,,,0.00,0,HR-IXPWINDi_r2_v1.2.,2013-01-12 00:22:00,
2013-01-11 19:27:00,41.1,38.9,30.15,South,169,0.0,2.0,92,0.00,,,0.00,0,HR-IXPWINDi_r2_v1.2.,2013-01-12 00:27:00,
2013-01-11 19:32:00,41.1,38.9,30.15,South,169,1.0,2.0,92,0.00,,,0.00,0,HR-IXPWINDi_r2_v1.2.,2013-01-12 00:32:00,
2013-01-11 19:37:00,41.1,38.9,30.16,SSE,168,0.0,2.0,92,0.00,,,0.00,0,HR-IXPWINDi_r2_v1.2.,2013-01-12 00:37:00,
2013-01-11 19:42:00,41.1,38.9,30.16,SSE,168,0.0,2.0,92,0.00,,,0.00,0,HR-IXPWINDi_r2_v1.2.,2013-01-12 00:42:00,
2013-01-11 19:48:00,41.2,39.0,30.16,South,169,0.0,2.0,92,0.00,,,0.00,0,HR-IXPWINDi_r2_v1.2.,2013-01-12 00:48:00,
2013-01-11 19:53:00,41.1,38.9,30.17,South,169,0.0,2.0,92,0.00,,,0.00,0,HR-IXPWINDi_r2_v1.2.,2013-01-12 00:53:00,
2013-01-11 19:58:00,40.8,38.6,30.17,SSE,168,0.0,2.0,92,0.00,,,0.00,0,HR-IXPWINDi_r2_v1.2.,2013-01-12 00:58:00,
2013-01-11 20:03:00,40.6,38.4,30.17,SSE,168,0.0,0.0,92,0.00,,,0.00,0,HR-IXPWINDi_r2_v1.2.,2013-01-12 01:03:00,
2013-01-11 20:09:00,40.8,38.6,30.16,SSE,168,0.0,0.0,92,0.00,,,0.00,0,HR-IXPWINDi_r2_v1.2.,2013-01-12 01:09:00,
2013-01-11 20:14:00,40.8,38.6,30.16,South,169,0.0,0.0,92,0.00,,,0.00,0,HR-IXPWINDi_r2_v1.2.,2013-01-12 01:14:00,
2013-01-11 20:19:00,40.6,38.4,30.16,South,172,0.0,0.0,92,0.00,,,0.00,0,HR-IXPWINDi_r2_v1.2.,2013-01-12 01:19:00,
2013-01-11 20:24:00,40.6,38.4,30.15,SSE,168,0.0,0.0,92,0.00,,,0.00,0,HR-IXPWINDi_r2_v1.2.,2013-01-12 01:24:00,
2013-01-11 20:29:00,40.5,38.3,30.15,South,172,0.0,0.0,92,0.00,,,0.00,0,HR-IXPWINDi_r2_v1.2.,2013-01-12 01:29:00,
2013-01-11 20:34:00,40.5,38.3,30.15,South,172,0.0,0.0,92,0.00,,,0.00,0,HR-IXPWINDi_r2_v1.2.,2013-01-12 01:34:00,
2013-01-11 20:40:00,40.6,38.7,30.15,South,169,0.0,0.0,93,0.00,,,0.00,0,HR-IXPWINDi_r2_v1.2.,2013-01-12 01:40:00,
2013-01-11 20:45:00,40.8,38.9,30.15,South,171,0.0,0.0,93,0.00,,,0.00,0,HR-IXPWINDi_r2_v1.2.,2013-01-12 01:45:00,
2013-01-11 20:50:00,40.8,38.9,30.15,SSE,168,0.0,0.0,93,0.00,,,0.00,0,HR-IXPWINDi_r2_v1.2.,2013-01-12 01:50:00,
2013-01-11 20:55:00,40.9,39.0,30.14,South,171,0.0,0.0,93,0.00,,,0.00,0,HR-IXPWINDi_r2_v1.2.,2013-01-12 01:55:00,
2013-01-11 21:00:00,40.9,39.0,30.14,South,169,0.0,0.0,93,0.00,,,0.00,0,HR-IXPWINDi_r2_v1.2.,2013-01-12 02:00:00,
2013-01-11 21:05:00,40.9,39.0,30.14,South,171,0.0,0.0,93,0.00,,,0.00,0,HR-IXPWINDi_r2_v1.2.,2013-01-12 02:05:00,
2013-01-11 21:11:00,41.2,39.3,30.13,SSE,168,0.0,0.0,93,0.00,,,0.00,0,HR-IXPWINDi_r2_v1.2.,2013-01-12 02:11:00,
2013-01-11 21:16:00,41.6,39.7,30.13,South,169,0.0,1.0,93,0.00,,,0.00,0,HR-IXPWINDi_r2_v1.2.,2013-01-12 02:16:00,
2013-01-11 21:21:00,41.8,39.9,30.12,South,171,0.0,1.0,93,0.00,,,0.00,0,HR-IXPWINDi_r2_v1.2.,2013-01-12 02:21:00,
2013-01-11 21:26:00,41.8,39.9,30.12,South,169,0.0,0.0,93,0.00,,,0.00,0,HR-IXPWINDi_r2_v1.2.,2013-01-12 02:26:00,
2013-01-11 21:31:00,42.3,40.6,30.12,South,171,0.0,2.0,94,0.00,,,0.00,0,HR-IXPWINDi_r2_v1.2.,2013-01-12 02:31:00,
2013-01-11 21:37:00,42.5,40.8,30.12,South,171,0.0,2.0,94,0.00,,,0.00,0,HR-IXPWINDi_r2_v1.2.,2013-01-12 02:37:00,
2013-01-11 21:42:00,42.5,40.6,30.12,SSE,168,0.0,2.0,93,0.00,,,0.00,0,HR-IXPWINDi_r2_v1.2.,2013-01-12 02:42:00,
2013-01-11 21:47:00,42.6,40.9,30.12,SSE,168,0.0,0.0,94,0.00,,,0.00,0,HR-IXPWINDi_r2_v1.2.,2013-01-12 02:47:00,
2013-01-11 21:52:00,42.6,40.7,30.12,South,171,0.0,0.0,93,0.00,,,0.00,0,HR-IXPWINDi_r2_v1.2.,2013-01-12 02:52:00,
2013-01-11 21:57:00,42.5,40.8,30.12,South,172,0.0,0.0,94,0.00,,,0.00,0,HR-IXPWINDi_r2_v1.2.,2013-01-12 02:57:00,
2013-01-11 22:03:00,42.6,40.9,30.12,South,171,0.0,0.0,94,0.00,,,0.00,0,HR-IXPWINDi_r2_v1.2.,2013-01-12 03:03:00,
2013-01-11 22:08:00,42.6,40.9,30.12,SSE,168,0.0,0.0,94,0.00,,,0.00,0,HR-IXPWINDi_r2_v1.2.,2013-01-12 03:08:00,
2013-01-11 22:13:00,43.1,41.4,30.12,South,171,0.0,0.0,94,0.00,,,0.00,0,HR-IXPWINDi_r2_v1.2.,2013-01-12 03:13:00,
2013-01-11 22:18:00,43.2,41.5,30.12,South,171,0.0,0.0,94,0.00,,,0.00,0,HR-IXPWINDi_r2_v1.2.,2013-01-12 03:18:00,
2013-01-11 22:23:00,43.3,41.6,30.12,SSE,168,0.0,0.0,94,0.00,,,0.00,0,HR-IXPWINDi_r2_v1.2.,2013-01-12 03:23:00,
2013-01-11 22:29:00,43.3,41.6,30.12,South,171,0.0,0.0,94,0.00,,,0.00,0,HR-IXPWINDi_r2_v1.2.,2013-01-12 03:29:00,
2013-01-11 22:34:00,43.3,41.6,30.12,SSE,168,0.0,0.0,94,0.00,,,0.00,0,HR-IXPWINDi_r2_v1.2.,2013-01-12 03:34:00,
2013-01-11 22:39:00,43.5,41.8,30.11,SSE,168,0.0,0.0,94,0.00,,,0.00,0,HR-IXPWINDi_r2_v1.2.,2013-01-12 03:39:00,
2013-01-11 22:44:00,43.6,41.9,30.11,South,171,0.0,0.0,94,0.00,,,0.00,0,HR-IXPWINDi_r2_v1.2.,2013-01-12 03:44:00,
2013-01-11 22:50:00,43.6,41.9,30.11,South,172,0.0,0.0,94,0.00,,,0.00,0,HR-IXPWINDi_r2_v1.2.,2013-01-12 03:50:00,
2013-01-11 22:55:00,43.8,42.1,30.10,SSE,168,0.0,0.0,94,0.00,,,0.00,0,HR-IXPWINDi_r2_v1.2.,2013-01-12 03:55:00,
2013-01-11 23:00:00,44.1,42.4,30.10,South,169,0.0,2.0,94,0.00,,,0.00,0,HR-IXPWINDi_r2_v1.2.,2013-01-12 04:00:00,
2013-01-11 23:05:00,44.5,42.8,30.10,SSE,168,103.0,112.0,94,0.00,,,0.00,0,HR-IXPWINDi_r2_v1.2.,2013-01-12 04:05:00,
2013-01-11 23:11:00,44.8,43.1,30.10,SSE,160,0.0,112.0,94,0.00,,,0.00,0,HR-IXPWINDi_r2_v1.2.,2013-01-12 04:11:00,
2013-01-11 23:16:00,45.2,43.8,30.10,South,171,0.0,112.0,95,0.00,,,0.00,0,HR-IXPWINDi_r2_v1.2.,2013-01-12 04:16:00,
2013-01-11 23:21:00,44.6,42.9,30.09,South,169,0.0,3.0,94,0.00,,,0.00,0,HR-IXPWINDi_r2_v1.2.,2013-01-12 04:21:00,
2013-01-11 23:26:00,44.6,42.9,30.09,South,171,112.0,113.0,94,0.00,,,0.00,0,HR-IXPWINDi_r2_v1.2.,2013-01-12 04:26:00,
2013-01-11 23:31:00,44.6,42.9,30.09,SSE,162,0.0,113.0,94,0.00,,,0.00,0,HR-IXPWINDi_r2_v1.2.,2013-01-12 04:31:00,
2013-01-11 23:37:00,44.6,42.9,30.09,South,169,0.0,113.0,94,0.00,,,0.00,0,HR-IXPWINDi_r2_v1.2.,2013-01-12 04:37:00,
2013-01-11 23:42:00,44.1,42.4,30.09,SSE,168,2.0,112.0,94,0.00,,,0.00,0,HR-IXPWINDi_r2_v1.2.,2013-01-12 04:42:00,
2013-01-11 23:47:00,43.9,42.2,30.09,South,169,25.0,25.0,94,0.00,,,0.00,0,HR-IXPWINDi_r2_v1.2.,2013-01-12 04:47:00,
2013-01-11 23:53:00,44.6,43.2,30.07,South,169,0.0,102.0,95,0.00,,,0.00,0,HR-IXPWINDi_r2_v1.2.,2013-01-12 04:53:00,
2013-01-11 23:58:00,45.1,43.7,30.07,SSE,168,112.0,113.0,95,0.00,,,0.00,0,HR-IXPWINDi_r2_v1.2.,2013-01-12 04:58:00,